Location: Azul
(36.7830°S, 59.8500°W)
Time: 10:36:36
(UTC-03:00)

JUGNU - Visible Passes

Search period start: 22 October 2021 00:00
Search period end: 01 November 2021 00:00
Orbit: 836 x 864 km, 20.0° (Epoch: 22 October)

Date Brightness Start Highest point End Pass type
(mag) Time Alt. Az. Time Alt. Az. Time Alt. Az.
22 Oct ? 03:45:38 12° NNE 03:45:38 12° NNE 03:46:35 10° NE visible
22 Oct ? 05:28:43 10° NW 05:31:54 15° N 05:35:03 10° NNE visible
23 Oct ? 03:31:20 10° NE 03:31:20 10° NE 03:31:24 10° NE visible
23 Oct ? 05:13:28 10° NW 05:16:33 14° N 05:19:39 10° NNE visible
24 Oct ? 04:58:54 11° NNW 05:01:14 14° N 05:04:12 10° NNE visible
25 Oct ? 04:44:41 13° NNW 04:45:54 14° N 04:48:44 10° NNE visible
26 Oct ? 04:30:31 13° N 04:30:34 13° N 04:33:13 10° NNE visible
27 Oct ? 04:16:24 12° N 04:16:24 12° N 04:17:38 10° NNE visible
